Location: Keppel Henge
(44.7900°N, 80.9447°W)
Time: 00:08:12
(UTC-04:00)

Tiangong 1 - Pass Details

Date: 09 October 2017
Orbit: 292 x 319 km, 42.8° (Epoch: 23 October)

Event Time Altitude Azimuth Distance (km) Brightness Sun altitude
Rises 20:42:49 0° 267° (W) 2,034 6.1 -20.9°
Reaches altitude 10° 20:44:49 10° 263° (W) 1,199 4.6 -21.3°
Enters shadow 20:46:15 26° 250° (WSW) 647 2.7 -21.5°
